Morris, IL

3:12 AM CDT on March 29, 2017 (GMT -0500)
Morris

Weather History for KC09 - November, 2012

Change the Weather History Date:

Friday, November 9, 2012

  Actual Average (KARR) Record (KARR)
Temperature  
Mean Temperature 46 °F -  
Max Temperature 58 °F 48 °F 74 °F (1999)
Min Temperature 34 °F 30 °F 15 °F (2003)
Degree Days  
Heating Degree Days 19    
Moisture  
Dew Point 41 °F    
Average Humidity 83    
Maximum Humidity 100    
Minimum Humidity 60    
Precipitation  
Precipitation 0.00 in - - ()
Sea Level Pressure  
Sea Level Pressure 30.02 in    
Wind  
Wind Speed 6 mph (SE)    
Max Wind Speed 12 mph    
Max Gust Speed -    
Visibility 7 miles    
Events      
Averages and records for this station are not official NWS values.
T = Trace of Precipitation, MM = Missing Value Source: NWS Daily Summary

Daily Weather History Graph

Daily Weather History Graph

Search for Another Location

Airport or City:

Trip Planner

Search our weather history database for the weather conditions in past years. The results will help you decide how hot, cold, wet, or windy it might be!

Date:

Astronomy

Nov. 09, 2012 Rise Set
Actual Time 6:35 AM CST 4:39 PM CST
Civil Twilight 6:06 AM CST 5:08 PM CST
Nautical Twilight 5:33 AM CST 5:41 PM CST
Astronomical Twilight 5:00 AM CST 6:13 PM CST
Moon 1:30 AM CST (11/9) 1:54 PM CST (11/9)
Length of Visible Light 11h 02m
Length of Day
10h 03m
Waning Crescent, 23% of the Moon is Illuminated
Nov 9
Waning Crescent
Nov 13
New
Nov 20
First Quarter
Nov 28
Full
Dec 6
Last Quarter

Hourly Weather History & Observations

Time (CST) Temp. Windchill Dew Point Humidity Pressure Visibility Wind Dir Wind Speed Gust Speed Precip Events Conditions
12:15 AM 36.7 °F 32.9 °F 36.0 °F 97% 30.11 in 4.0 mi South 4.6 mph - N/A   Clear
12:35 AM 36.3 °F 30.8 °F 36.0 °F 99% 30.10 in 4.0 mi SSE 6.9 mph - N/A   Clear
12:55 AM 34.7 °F 29.6 °F 34.7 °F 100% 30.10 in 3.0 mi SSE 5.8 mph - N/A   Clear
1:15 AM 35.6 °F 31.7 °F 35.6 °F 100% 30.10 in 3.0 mi SE 4.6 mph - N/A   Clear
1:35 AM 35.1 °F 31.0 °F 35.1 °F 100% 30.09 in 3.0 mi SE 4.6 mph - N/A   Clear
1:55 AM 35.1 °F 30.1 °F 35.1 °F 100% 30.09 in 3.0 mi SE 5.8 mph - N/A   Clear
2:15 AM 35.4 °F 31.5 °F 35.4 °F 100% 30.09 in 3.0 mi SE 4.6 mph - N/A   Clear
2:35 AM 35.1 °F 30.1 °F 35.1 °F 100% 30.09 in 3.0 mi SE 5.8 mph - N/A   Clear
2:55 AM 34.9 °F 29.0 °F 34.9 °F 100% 30.08 in 3.0 mi SE 6.9 mph - N/A   Clear
3:15 AM 34.7 °F 28.8 °F 34.7 °F 100% 30.08 in 3.0 mi SSE 6.9 mph - N/A   Clear
3:35 AM 34.7 °F 29.6 °F 34.7 °F 100% 30.08 in 2.5 mi SE 5.8 mph - N/A   Clear
3:55 AM 34.9 °F 30.8 °F 34.9 °F 100% 30.08 in 2.0 mi SE 4.6 mph - N/A   Clear
4:15 AM 35.6 °F 32.8 °F 35.6 °F 100% 30.08 in 2.0 mi SE 3.5 mph - N/A   Clear
4:35 AM 35.6 °F 31.7 °F 35.6 °F 100% 30.08 in 2.0 mi SE 4.6 mph - N/A   Clear
4:55 AM 34.0 °F 28.8 °F 34.0 °F 100% 30.08 in 1.8 mi SE 5.8 mph - N/A   Mist
5:15 AM 34.7 °F 30.6 °F 34.7 °F 100% 30.08 in 2.0 mi SE 4.6 mph - N/A   Clear
5:35 AM 34.3 °F 29.2 °F 34.3 °F 100% 30.07 in 2.0 mi SE 5.8 mph - N/A   Clear
5:55 AM 34.7 °F 31.8 °F 34.7 °F 100% 30.07 in 2.0 mi SSE 3.5 mph - N/A   Scattered Clouds
6:15 AM 34.2 °F 29.0 °F 34.2 °F 100% 30.07 in 2.5 mi SSE 5.8 mph - N/A   Clear
6:35 AM 34.7 °F 29.6 °F 34.7 °F 100% 30.08 in 2.5 mi SSE 5.8 mph - N/A   Clear
6:55 AM 35.6 °F 31.7 °F 35.6 °F 100% 30.08 in 2.0 mi South 4.6 mph - N/A   Mostly Cloudy
7:15 AM 36.7 °F 31.2 °F 36.7 °F 100% 30.08 in 2.0 mi SSE 6.9 mph - N/A   Overcast
7:35 AM 38.1 °F 33.7 °F 37.8 °F 99% 30.08 in 2.5 mi SSE 5.8 mph - N/A   Mostly Cloudy
7:55 AM 39.9 °F 34.5 °F 39.0 °F 97% 30.08 in 3.0 mi SSE 8.1 mph - N/A   Mostly Cloudy
8:15 AM 41.0 °F 36.4 °F 39.7 °F 95% 30.07 in 4.0 mi South 6.9 mph - N/A   Mostly Cloudy
8:35 AM 41.7 °F 37.3 °F 39.9 °F 93% 30.06 in 4.0 mi South 6.9 mph - N/A   Scattered Clouds
8:55 AM 42.8 °F 38.0 °F 39.9 °F 90% 30.06 in 5.0 mi South 8.1 mph - N/A   Mostly Cloudy
9:15 AM 43.9 °F 38.8 °F 40.6 °F 88% 30.05 in 5.0 mi SSE 9.2 mph - N/A   Overcast
9:35 AM 46.0 °F 40.6 °F 41.9 °F 85% 30.05 in 5.0 mi South 11.5 mph - N/A   Mostly Cloudy
9:55 AM 48.6 °F - 43.2 °F 82% 30.06 in 7.0 mi South 8.1 mph - N/A   Clear
10:15 AM 50.4 °F - 43.2 °F 76% 30.05 in 7.0 mi South 9.2 mph - N/A   Clear
10:35 AM 51.4 °F - 41.9 °F 70% 30.05 in 10.0 mi South 9.2 mph - N/A   Scattered Clouds
10:55 AM 52.9 °F - 42.4 °F 68% 30.05 in 10.0 mi South 6.9 mph - N/A   Scattered Clouds
11:15 AM 54.1 °F - 42.6 °F 65% 30.04 in 10.0 mi SSW 10.4 mph - N/A   Scattered Clouds
11:35 AM 55.9 °F - 43.0 °F 62% 30.02 in 10.0 mi SSW 9.2 mph - N/A   Scattered Clouds
11:55 AM 55.8 °F - 43.0 °F 62% 30.02 in 10.0 mi South 4.6 mph - N/A   Mostly Cloudy
12:15 PM 57.4 °F - 43.5 °F 60% 30.01 in 10.0 mi SE 6.9 mph - N/A   Mostly Cloudy
12:35 PM 56.3 °F - 43.5 °F 62% 30.01 in 10.0 mi SE 6.9 mph - N/A   Mostly Cloudy
12:55 PM 56.7 °F - 43.9 °F 62% 30.00 in 10.0 mi SE 6.9 mph - N/A   Overcast
1:15 PM 57.2 °F - 44.4 °F 62% 29.99 in 10.0 mi SE 8.1 mph - N/A   Overcast
1:35 PM 58.1 °F - 44.6 °F 61% 29.98 in 10.0 mi SE 8.1 mph - N/A   Overcast
1:55 PM 58.3 °F - 44.8 °F 61% 29.97 in 10.0 mi SE 9.2 mph - N/A   Overcast
2:15 PM 58.8 °F - 45.0 °F 60% 29.97 in 10.0 mi SE 9.2 mph - N/A   Mostly Cloudy
2:35 PM 58.1 °F - 45.1 °F 62% 29.96 in 10.0 mi SE 11.5 mph - N/A   Clear
2:55 PM 58.3 °F - 45.9 °F 63% 29.98 in 10.0 mi SE 9.2 mph - N/A   Clear
3:15 PM 57.4 °F - 45.7 °F 65% 29.97 in 10.0 mi SE 9.2 mph - N/A   Clear
3:35 PM 56.5 °F - 45.7 °F 67% 29.97 in 10.0 mi SE 6.9 mph - N/A   Clear
3:55 PM 55.4 °F - 45.7 °F 70% 29.98 in 10.0 mi SE 6.9 mph - N/A   Clear
4:15 PM 54.0 °F - 45.5 °F 73% 29.98 in 10.0 mi SE 4.6 mph - N/A   Clear
4:35 PM 52.7 °F - 45.3 °F 76% 29.97 in 10.0 mi SE 6.9 mph - N/A   Clear
4:55 PM 52.7 °F - 44.8 °F 74% 29.97 in 10.0 mi ESE 6.9 mph - N/A   Clear
5:15 PM 52.7 °F - 44.8 °F 74% 29.97 in 10.0 mi ESE 6.9 mph - N/A   Clear
5:35 PM 51.8 °F - 44.8 °F 77% 29.97 in 10.0 mi ESE 6.9 mph - N/A   Clear
5:55 PM 51.8 °F - 45.0 °F 77% 29.97 in 10.0 mi ESE 6.9 mph - N/A   Clear
6:15 PM 51.4 °F - 45.1 °F 79% 29.96 in 10.0 mi East 6.9 mph - N/A   Clear
6:35 PM 52.0 °F - 45.7 °F 79% 29.96 in 10.0 mi ESE 8.1 mph - N/A   Clear
6:55 PM 52.2 °F - 45.9 °F 79% 29.96 in 10.0 mi ESE 6.9 mph - N/A   Clear
7:15 PM 52.2 °F - 45.9 °F 79% 29.96 in 10.0 mi ESE 5.8 mph - N/A   Clear
7:35 PM 53.6 °F - 46.4 °F 77% 29.97 in 10.0 mi East 4.6 mph - N/A   Clear
7:55 PM 51.8 °F - 45.5 °F 79% 29.97 in 10.0 mi ESE 4.6 mph - N/A   Clear
8:15 PM 51.3 °F - 45.5 °F 81% 29.98 in 10.0 mi East 3.5 mph - N/A   Clear
8:35 PM 51.8 °F - 45.7 °F 80% 29.98 in 10.0 mi East 4.6 mph - N/A   Clear
8:55 PM 52.2 °F - 45.9 °F 79% 29.98 in 10.0 mi East 3.5 mph - N/A   Clear
9:15 PM 50.2 °F - 45.0 °F 82% 29.98 in 10.0 mi ESE 3.5 mph - N/A   Clear
9:35 PM 50.4 °F - 45.0 °F 82% 29.98 in 10.0 mi East 3.5 mph - N/A   Clear
9:55 PM 50.9 °F - 44.6 °F 79% 29.98 in 10.0 mi ESE 4.6 mph - N/A   Clear
10:15 PM 50.7 °F - 44.4 °F 79% 29.97 in 10.0 mi ESE 4.6 mph - N/A   Scattered Clouds
10:35 PM 51.1 °F - 44.8 °F 79% 29.97 in 10.0 mi SE 3.5 mph - N/A   Overcast
10:55 PM 51.6 °F - 44.8 °F 77% 29.97 in 10.0 mi SE 4.6 mph - N/A   Mostly Cloudy
11:15 PM 50.9 °F - 45.1 °F 81% 29.98 in 10.0 mi SSE 5.8 mph - N/A   Scattered Clouds
11:35 PM 50.2 °F - 44.8 °F 82% 29.98 in 10.0 mi SSE 4.6 mph - N/A   Scattered Clouds
11:55 PM 49.8 °F - 44.6 °F 82% 29.98 in 10.0 mi SSE 4.6 mph - N/A   Scattered Clouds